AFL1604 UUEE-UWWW

Flight info

Callsign AFL1604
Flight time N/A
Altitude 37000
Route KOGOM3H KOGOM L94 EKPIR M864 IBROT T784 OTKOL T787 OKSUD T778 RUBEK RUBEK2G
Aircraft B738/M-SDE2E3FGHIRWXY/LB1

Departure

Time 2026-05-07 17:21
Airport Sheremetyevo International Airport (UUEE)

Arrival

Time N/A
Airport Kurumoch International Airport (UWWW)
Time Latitude Longitude Altitude Speed Heading
2026-05-07 16:25 55.97881 37.42153 638 ft 0 kts 255°
2026-05-07 17:13 55.97881 37.42152 638 ft 0 kts 255°
2026-05-07 17:14 55.97878 37.42132 638 ft 3 kts 255°
2026-05-07 17:14 55.97865 37.42075 640 ft 6 kts 229°
2026-05-07 17:14 55.97824 37.42074 638 ft 6 kts 166°
2026-05-07 17:14 55.97782 37.42093 638 ft 6 kts 166°
2026-05-07 17:15 55.97741 37.42112 640 ft 6 kts 162°
2026-05-07 17:15 55.97702 37.42135 638 ft 6 kts 156°
2026-05-07 17:15 55.97687 37.42198 638 ft 6 kts 81°
2026-05-07 17:15 55.97698 37.42272 640 ft 6 kts 72°
2026-05-07 17:16 55.97708 37.42344 644 ft 6 kts 76°
2026-05-07 17:16 55.97719 37.42416 647 ft 6 kts 74°
2026-05-07 17:16 55.97730 37.42489 639 ft 7 kts 75°
2026-05-07 17:16 55.97743 37.42579 638 ft 8 kts 75°
2026-05-07 17:17 55.97760 37.42687 641 ft 10 kts 74°
2026-05-07 17:17 55.97779 37.42810 642 ft 11 kts 74°
2026-05-07 17:17 55.97799 37.42946 638 ft 12 kts 76°
2026-05-07 17:17 55.97821 37.43094 645 ft 13 kts 75°
2026-05-07 17:18 55.97844 37.43251 640 ft 13 kts 75°
2026-05-07 17:18 55.97869 37.43418 640 ft 14 kts 75°
2026-05-07 17:18 55.97895 37.43593 645 ft 15 kts 75°
2026-05-07 17:18 55.97923 37.43776 641 ft 16 kts 75°
2026-05-07 17:19 55.97941 37.43900 640 ft 8 kts 75°
2026-05-07 17:19 55.97950 37.44005 638 ft 9 kts 107°
2026-05-07 17:19 55.97891 37.44051 642 ft 10 kts 165°
2026-05-07 17:19 55.97824 37.44083 639 ft 9 kts 165°
2026-05-07 17:20 55.97780 37.44022 639 ft 3 kts 255°
2026-05-07 17:20 55.97780 37.44016 639 ft 3 kts 256°
2026-05-07 17:20 55.97762 37.43894 642 ft 27 kts 255°
2026-05-07 17:20 55.97649 37.43139 638 ft 98 kts 255°
2026-05-07 17:21 55.97420 37.41598 638 ft 157 kts 255°
2026-05-07 17:21 55.97100 37.39518 960 ft 180 kts 255°
2026-05-07 17:21 55.96752 37.37441 1878 ft 170 kts 254°
2026-05-07 17:21 55.96441 37.35456 2681 ft 164 kts 255°
2026-05-07 17:22 55.96142 37.33500 3377 ft 162 kts 255°
2026-05-07 17:22 55.95844 37.31557 4003 ft 167 kts 255°
2026-05-07 17:22 55.95518 37.29437 4248 ft 190 kts 255°
2026-05-07 17:22 55.95147 37.27049 4419 ft 210 kts 255°
2026-05-07 17:23 55.94742 37.24450 4718 ft 223 kts 255°
2026-05-07 17:23 55.94317 37.21739 5096 ft 235 kts 255°
2026-05-07 17:23 55.93863 37.18846 5546 ft 247 kts 255°
2026-05-07 17:23 55.93400 37.15908 6363 ft 244 kts 254°
2026-05-07 17:24 55.93090 37.13947 6941 ft 242 kts 253°
2026-05-07 17:24 55.92784 37.12022 7405 ft 245 kts 253°
2026-05-07 17:24 55.92002 37.07109 8526 ft 250 kts 253°
2026-05-07 17:24 55.91661 37.04063 9217 ft 255 kts 268°
2026-05-07 17:25 55.92057 37.00935 9876 ft 266 kts 289°
2026-05-07 17:25 55.93097 36.98137 10502 ft 280 kts 309°
2026-05-07 17:25 55.94667 36.95966 11150 ft 289 kts 317°
2026-05-07 17:25 55.96341 36.93925 11784 ft 293 kts 318°
2026-05-07 17:26 55.98170 36.92212 12456 ft 308 kts 338°
2026-05-07 17:26 56.00353 36.92019 13142 ft 325 kts
2026-05-07 17:26 56.02467 36.93611 13852 ft 336 kts 29°
2026-05-07 17:26 56.04420 36.95934 14491 ft 339 kts 31°
2026-05-07 17:27 56.05717 36.97515 14893 ft 342 kts 31°
2026-05-07 17:27 56.07701 36.99900 15530 ft 345 kts 30°
2026-05-07 17:27 56.10378 37.03123 16406 ft 350 kts 36°
2026-05-07 17:27 56.11943 37.06493 16990 ft 358 kts 65°
2026-05-07 17:28 56.12512 37.10805 17615 ft 358 kts 94°
2026-05-07 17:28 56.12258 37.15219 18260 ft 357 kts 102°
2026-05-07 17:28 56.12005 37.18137 18600 ft 360 kts 102°
2026-05-07 17:28 56.11623 37.22598 19131 ft 364 kts 101°
2026-05-07 17:29 56.11283 37.27102 19675 ft 366 kts 99°
2026-05-07 17:29 56.11086 37.30109 20075 ft 367 kts 98°
2026-05-07 17:29 56.10664 37.37780 21017 ft 372 kts 97°
2026-05-07 17:29 56.10518 37.40840 21350 ft 374 kts 97°
2026-05-07 17:30 56.10308 37.45507 21907 ft 377 kts 96°
2026-05-07 17:30 56.10107 37.50206 22422 ft 380 kts 96°
2026-05-07 17:30 56.09907 37.54958 22946 ft 383 kts 96°
2026-05-07 17:30 56.09707 37.59732 23471 ft 386 kts 95°
2026-05-07 17:31 56.09506 37.64540 23911 ft 388 kts 95°
2026-05-07 17:31 56.09302 37.69370 24355 ft 390 kts 95°
2026-05-07 17:31 56.09094 37.74234 24798 ft 393 kts 95°
2026-05-07 17:31 56.08884 37.79122 25231 ft 395 kts 96°
2026-05-07 17:32 56.08670 37.84029 25651 ft 397 kts 96°
2026-05-07 17:32 56.08452 37.88982 26071 ft 400 kts 96°
2026-05-07 17:32 56.08232 37.93943 26488 ft 401 kts 95°
2026-05-07 17:32 56.08010 37.98896 27083 ft 397 kts 95°
2026-05-07 17:33 56.07789 38.03796 27695 ft 393 kts 95°
2026-05-07 17:33 56.07568 38.08666 28184 ft 393 kts 96°
2026-05-07 17:33 56.07346 38.13480 28619 ft 393 kts 96°
2026-05-07 17:33 56.07120 38.18349 29104 ft 392 kts 96°
2026-05-07 17:34 56.06893 38.23201 29613 ft 390 kts 96°
2026-05-07 17:34 56.06665 38.28030 30068 ft 389 kts 96°
2026-05-07 17:34 56.06436 38.32847 30421 ft 389 kts 96°
2026-05-07 17:34 56.06204 38.37671 30745 ft 389 kts 96°
2026-05-07 17:35 56.05971 38.42493 31084 ft 389 kts 95°
2026-05-07 17:35 56.05736 38.47315 31430 ft 388 kts 95°
2026-05-07 17:35 56.05500 38.52120 31766 ft 388 kts 95°
2026-05-07 17:35 56.05260 38.56954 31968 ft 392 kts 95°
2026-05-07 17:36 56.04765 38.66813 32154 ft 405 kts 95°
2026-05-07 17:36 56.04245 38.77015 32302 ft 419 kts 95°
2026-05-07 17:37 56.03699 38.87544 32437 ft 432 kts 95°
2026-05-07 17:37 56.03127 38.98404 32568 ft 445 kts 95°
2026-05-07 17:38 56.02528 39.09582 32691 ft 458 kts 95°
2026-05-07 17:38 56.01903 39.21040 32806 ft 469 kts 96°
2026-05-07 17:39 56.01252 39.32763 33007 ft 477 kts 96°
2026-05-07 17:39 56.00920 39.38672 33221 ft 478 kts 96°
2026-05-07 17:39 56.00585 39.44582 33470 ft 478 kts 96°
2026-05-07 17:40 56.00247 39.50483 33775 ft 477 kts 96°
2026-05-07 17:40 55.99909 39.56368 34056 ft 476 kts 96°
2026-05-07 17:40 55.99568 39.62246 34273 ft 476 kts 96°
2026-05-07 17:40 55.99154 39.68121 34429 ft 477 kts 101°
2026-05-07 17:41 55.98372 39.73877 34622 ft 477 kts 106°
2026-05-07 17:41 55.97468 39.79563 34866 ft 476 kts 107°
2026-05-07 17:41 55.96535 39.85219 35089 ft 475 kts 107°
2026-05-07 17:41 55.95598 39.90874 35261 ft 475 kts 107°
2026-05-07 17:42 55.94670 39.96525 35521 ft 473 kts 107°
2026-05-07 17:42 55.93757 40.02155 35793 ft 472 kts 107°
2026-05-07 17:42 55.92853 40.07779 35984 ft 472 kts 107°
2026-05-07 17:42 55.91953 40.13404 36138 ft 472 kts 107°
2026-05-07 17:43 55.91052 40.19040 36297 ft 473 kts 107°
2026-05-07 17:43 55.90150 40.24676 36487 ft 473 kts 107°
2026-05-07 17:43 55.89258 40.30231 36676 ft 472 kts 107°
2026-05-07 17:43 55.88353 40.35851 36839 ft 472 kts 107°
2026-05-07 17:44 55.86524 40.47135 36875 ft 476 kts 107°
2026-05-07 17:44 55.84686 40.58395 36887 ft 471 kts 107°
2026-05-07 17:45 55.82855 40.69544 36894 ft 467 kts 107°
2026-05-07 17:45 55.81027 40.80595 36896 ft 465 kts 107°
2026-05-07 17:46 55.79197 40.91590 36898 ft 463 kts 107°
2026-05-07 17:46 55.77361 41.02554 36915 ft 464 kts 108°
2026-05-07 17:47 55.75498 41.13605 36912 ft 470 kts 108°
2026-05-07 17:47 55.73605 41.24765 36906 ft 474 kts 108°
2026-05-07 17:48 55.71690 41.35986 36905 ft 476 kts 108°
2026-05-07 17:48 55.69758 41.47237 36902 ft 477 kts 108°
2026-05-07 17:49 55.67817 41.58470 36898 ft 476 kts 108°
2026-05-07 17:49 55.65872 41.69653 36893 ft 474 kts 108°
2026-05-07 17:50 55.63928 41.80766 36895 ft 470 kts 108°
2026-05-07 17:50 55.61989 41.91778 36894 ft 467 kts 108°
2026-05-07 17:51 55.60051 42.02720 36896 ft 465 kts 108°
2026-05-07 17:51 55.58114 42.13587 36903 ft 463 kts 108°
2026-05-07 17:52 55.56174 42.24414 36906 ft 462 kts 108°
2026-05-07 17:52 55.54222 42.35237 36911 ft 463 kts 108°
2026-05-07 17:53 55.52257 42.46067 36925 ft 464 kts 109°
2026-05-07 17:53 55.50275 42.56934 36915 ft 466 kts 109°
2026-05-07 17:54 55.48273 42.67841 36914 ft 469 kts 109°
2026-05-07 17:54 55.46266 42.78712 36920 ft 470 kts 109°
2026-05-07 17:55 55.44230 42.89679 36917 ft 471 kts 109°
2026-05-07 17:55 55.42182 43.00650 36920 ft 472 kts 109°
2026-05-07 17:56 55.40122 43.11618 36921 ft 472 kts 109°
2026-05-07 17:56 55.39425 43.15314 36922 ft 471 kts 109°